Location: *
(2.5500°S, 65.9667°W)
Time: 20:31:46
(UTC+00:00)

Cosmos 2173 Rocket - Pass Details

Date: 29 May 2022
Orbit: 945 x 1000 km, 83.0° (Epoch: 02 July)

Event Time Altitude Azimuth Distance (km) Brightness Sun altitude
Rises 22:29:41 0° 187° (S) 3,675 6.9 -2.9°
Reaches altitude 10° 22:32:13 10° 188° (S) 2,717 6.2 -3.5°
Maximum altitude 22:38:25 76° 273° (W) 990 4.3 -4.9°
Drops below altitude 10° 22:44:31 10° 358° (N) 2,669 6.6 -6.3°
Sets 22:46:59 0° 360° (N) 3,606 7.3 -6.9°
